This demonstration page uses our WeatherBlox Daily Observations layout. Learn more.

Left ArrowRight Arrow

39.01783, -85.05884

Hourly Observations for October 18, 2019

Temp ( °F °C ) Dew Point ( °F °C ) Humidity (%) Winds ( mph kmh ) Pressure ( in mb ) Visibility ( mi km ) Precip ( " mm )
12:52 am 00:52 Clear 46 7.8 36 2.2 68 68 N 6 9 30.02 1017 10 16 0.00 0.00
1:52 am 01:52 Clear 44 6.7 36 2.2 73 73 NNE 6 9 30.02 1017 10 16 0.00 0.00
2:52 am 02:52 Clear 44 6.7 36 2.2 73 73 N 6 9 30.02 1017 10 16 0.00 0.00
3:52 am 03:52 Clear 42 5.6 36 2.2 79 79 Calm 30.04 1017 10 16 0.00 0.00
4:52 am 04:52 Clear 40 4.4 35 1.7 83 83 NW 3 6 30.04 1017 10 16 0.00 0.00
5:52 am 05:52 Clear 41 5 36 2.2 82 82 NNW 5 7 30.05 1018 10 16 0.00 0.00
6:52 am 06:52 Clear 40 4.4 37 2.8 89 89 NNE 3 6 30.07 1018 8 13 0.00 0.00
7:52 am 07:52 Sunny with Patchy Fog 39 3.9 36 2.2 89 89 NNE 6 9 30.09 1019 7 11 0.00 0.00
8:52 am 08:52 Sunny with Mist and Fog 43 6.1 38 3.3 82 82 N 3 6 30.10 1019 6 10 0.00 0.00
9:52 am 09:52 Sunny 47 8.3 40 4.4 77 77 ENE 7 11 30.10 1019 9 14 0.00 0.00
10:52 am 10:52 Mostly Sunny 51 10.6 38 3.3 61 61 ENE 9 15 30.10 1019 10 16 0.00 0.00
11:52 am 11:52 Mostly Sunny 55 12.8 39 3.9 55 55 E 6 9 30.10 1019 10 16 0.00 0.00
12:52 pm 12:52 Mostly Cloudy 56 13.3 38 3.3 51 51 ENE 3 6 30.08 1019 10 16 0.00 0.00
1:52 pm 13:52 Mostly Cloudy 57 13.9 37 2.8 47 47 SE 6 9 30.06 1018 10 16 0.00 0.00
2:52 pm 14:52 Mostly Cloudy 59 15 37 2.8 44 44 Calm 30.04 1017 10 16 0.00 0.00
3:52 pm 15:52 Mostly Cloudy 61 16.1 36 2.2 39 39 S 6 9 30.03 1017 10 16 0.00 0.00
4:52 pm 16:52 Mostly Cloudy 62 16.7 36 2.2 38 38 SSW 8 13 30.02 1017 10 16 0.00 0.00
5:52 pm 17:52 Partly Cloudy 61 16.1 36 2.2 39 39 S 5 7 30.01 1016 10 16 0.00 0.00
6:52 pm 18:52 Mostly Sunny 57 13.9 37 2.8 47 47 E 7 11 29.99 1016 10 16 0.00 0.00
7:52 pm 19:52 Mostly Clear 55 12.8 38 3.3 53 53 Calm 30.00 1016 10 16 0.00 0.00
8:52 pm 20:52 Clear 52 11.1 38 3.3 59 59 ESE 3 6 30.00 1016 10 16 0.00 0.00
9:52 pm 21:52 Clear 51 10.6 37 2.8 59 59 ESE 6 9 30.00 1016 10 16 0.00 0.00
10:52 pm 22:52 Clear 51 10.6 37 2.8 59 59 SE 6 9 29.98 1015 10 16 0.00 0.00
11:52 pm 23:52 Mostly Clear 50 10 36 2.2 59 59 Calm 29.98 1015 10 16 0.00 0.00

Powered by AerisWeather